Regional Weather Roundup
Issued by NWS Jackson, KY

Home | Current Version | Previous Version | Graphics & Text | Print | Product List | Glossary On
Versions: 1 2 3 4 5 6 7 8 9 10 11 12 13 14 15 16 17 18 19 20 21 22 23 24 25 26 27
000
ASUS43 KJKL 110610
RWRJKL

EAST KENTUCKY HOURLY WEATHER ROUNDUP
NATIONAL WEATHER SERVICE JACKSON KY
100 AM EST MON DEC 11 2017

NOTE: "FAIR" INDICATES FEW OR NO CLOUDS BELOW 12,000 FEET WITH
NO SIGNIFICANT WEATHER AND/OR OBSTRUCTIONS TO VISIBILITY.

* THESE REPORTS ARE NOT UNDER NWS QUALITY CONTROL AND MAY NOT
  REPORT WEATHER SUCH AS PRECIPITATION AND FOG.

KYZ079-080-083-085-087-088-110-112-115-119-120-110700
...EASTERN KENTUCKY...

CITY           SKY/WX    TMP DP  RH WIND       PRES   REMARKS
JACKSON        CLEAR     35  20  54 SW9       30.09S WCI  28
6HR MIN TEMP:  33; 6HR MAX TEMP:  35;

LONDON         CLEAR     34  20  56 SW5       30.13S WCI  30
6HR MIN TEMP:  34; 6HR MAX TEMP:  37;

SOMERSET*      CLEAR     36  23  60 W6        30.15S WCI  31
WILLIAMSBURG*  CLEAR     37  19  48 SW6       30.14S WCI  33
MIDDLESBORO*   CLOUDY    37  22  54 S7        30.16F WCI  31
6HR MIN TEMP:  28; 6HR MAX TEMP:  37;

HARLAN APT*    CLOUDY    30  21  69 CALM      30.13F
PIKE CO APT*     N/A     37  20  50 SW7G17    30.08F WCI  31
BIG SANDY APT* CLEAR     37  20  50 W9        30.08F WCI  30
6HR MIN TEMP:  36; 6HR MAX TEMP:  37;

MOREHEAD APT*  PTCLDY    34  19  55 SW10      30.10R WCI  26
$$

KYZ035-036-041-042-044-050-067-078-099-110700
...CENTRAL KENTUCKY...

CITY           SKY/WX    TMP DP  RH WIND       PRES   REMARKS
MT STERLING*   CLEAR     32  21  64 W7        30.11R WCI  26
FLEMING/MASON* CLEAR     29  21  70 W9        30.09R WCI  21
DANVILLE*      CLEAR     32  21  64 S3        30.12S
LEXINGTON      CLEAR     33  21  61 SW9       30.10S WCI  25
6HR MIN TEMP:  30; 6HR MAX TEMP:  33;

FRANKFORT      CLEAR     32  20  61 SW5       30.10R WCI  27
6HR MIN TEMP:  30; 6HR MAX TEMP:  34;

LOUISVILLE     CLEAR     35  24  64 W6        30.13R WCI  30
6HR MIN TEMP:  34; 6HR MAX TEMP:  39;

LEBANON*         N/A     34  19  55 S7        30.13R WCI  28
GLASGOW*       CLEAR     30  22  73 CALM      30.14F
BOWLING GREEN  CLEAR     31  23  72 S3        30.16R
6HR MIN TEMP:  30; 6HR MAX TEMP:  42;

$$

KYZ091>093-OHZ055-061-077-WVZ005-015-034-035-042-110700
...SOUTHERN OHIO/WEST VIRGINIA...

CITY           SKY/WX    TMP DP  RH WIND       PRES   REMARKS
COVINGTON      CLEAR     27  22  81 W8        30.07R WCI  19
COLUMBUS       CLOUDY    33  23  66 W8        30.01R WCI  26
DAYTON         CLOUDY    30  24  78 NW10      30.04R WCI  21
WILMINGTON     CLEAR     29  22  75 W12       30.03R WCI  19
HUNTINGTON     CLEAR     33  16  49 SW8       30.07R WCI  26
CHARLESTON     CLOUDY    39  17  41 W10       30.06S WCI  32
PINEVILLE*       N/A     24  21  89 MISG      30.12F
BLUEFIELD      CLEAR     30  16  56 W14G22    30.02S WCI  19
LOGAN CO APT*  MOCLDY    37  18  44 W12G21    30.06S WCI  30
$$

VAZ002-007-008-TNZ017-027-036-066-071-110700
...SOUTHWEST VIRGINIA/EAST TENNESSEE...

CITY           SKY/WX    TMP DP  RH WIND       PRES   REMARKS
WISE*          CLOUDY    32  23  69 S8        30.09S WCI  25
JONESVILLE*      N/A     23  21  93 CALM      30.18F
ABINGDON*      CLOUDY    30  20  64 W6        30.12F WCI  24
BRISTOL        CLOUDY    24  21  88 CALM      30.16F
MORRISTOWN*    CLEAR     36  21  55 W7G13     30.17S WCI  30
SEVIERVILLE*   CLEAR     37  21  52 SW8       30.19S WCI  31
KNOXVILLE      PTCLDY    36  26  67 SW12      30.19S WCI  28
LAFOLLETTE*    CLEAR     30  23  74 CALM      30.20S
OAK RIDGE      CLEAR     31  24  75 CALM      30.21F
CROSSVILLE     CLEAR     31  19  61 SW5       30.16F WCI  26
NASHVILLE      CLEAR     42  25  50 CALM      30.17F
$$

...KEY TO REMARKS...
VSB - VISIBILITY IN MILES
WCI - WIND CHILL INDEX
HX  - HEAT INDEX

$$




USA.gov is the U.S. government's official web portal to all federal, state and local government web resources and services.